Year,Month,Day,Hour,Minute,Value (Times are PST for temperature in C)
2015,06,30,00,00,20.30
2015,06,30,00,01,20.30
2015,06,30,00,02,20.20
2015,06,30,00,03,20.20
2015,06,30,00,04,20.20
2015,06,30,00,05,20.20
2015,06,30,00,06,20.20
2015,06,30,00,07,20.20
2015,06,30,00,08,20.10
2015,06,30,00,09,20.10
2015,06,30,00,10,20.10
2015,06,30,00,11,20.00
2015,06,30,00,12,20.00
2015,06,30,00,13,20.00
2015,06,30,00,14,19.90
2015,06,30,00,15,19.90
2015,06,30,00,16,19.90
2015,06,30,00,17,19.80
2015,06,30,00,18,19.80
2015,06,30,00,19,19.80
2015,06,30,00,20,19.70
2015,06,30,00,21,19.70
2015,06,30,00,22,19.60
2015,06,30,00,23,19.60
2015,06,30,00,24,19.60
2015,06,30,00,25,19.50
2015,06,30,00,26,19.50
2015,06,30,00,27,19.40
2015,06,30,00,28,19.40
2015,06,30,00,29,19.40
2015,06,30,00,30,19.40
2015,06,30,00,31,19.30
2015,06,30,00,32,19.30
2015,06,30,00,33,19.30
2015,06,30,00,34,19.20
2015,06,30,00,35,19.20
2015,06,30,00,36,19.20
2015,06,30,00,37,19.20
2015,06,30,00,38,19.10
2015,06,30,00,39,19.10
2015,06,30,00,40,19.10
2015,06,30,00,41,19.00
2015,06,30,00,42,19.00
2015,06,30,00,43,19.00
2015,06,30,00,44,18.90
2015,06,30,00,45,18.90
2015,06,30,00,46,18.90
2015,06,30,00,47,18.90
2015,06,30,00,48,18.80
2015,06,30,00,49,18.80
2015,06,30,00,50,18.80
2015,06,30,00,51,18.70
2015,06,30,00,52,18.70
2015,06,30,00,53,18.70
2015,06,30,00,54,18.70
2015,06,30,00,55,18.60
2015,06,30,00,56,18.60
2015,06,30,00,57,18.60
2015,06,30,00,58,18.60
2015,06,30,00,59,18.50
2015,06,30,01,00,18.50
2015,06,30,01,01,18.40
2015,06,30,01,02,18.40
2015,06,30,01,03,18.40
2015,06,30,01,04,18.40
2015,06,30,01,05,18.30
2015,06,30,01,06,18.30
2015,06,30,01,07,18.30
2015,06,30,01,08,18.20
2015,06,30,01,09,18.20
2015,06,30,01,10,18.20
2015,06,30,01,11,18.20
2015,06,30,01,12,18.10
2015,06,30,01,13,18.10
2015,06,30,01,14,18.10
2015,06,30,01,15,18.10
2015,06,30,01,16,18.10
2015,06,30,01,17,18.00
2015,06,30,01,18,18.00
2015,06,30,01,19,18.00
2015,06,30,01,20,17.90
2015,06,30,01,21,17.90
2015,06,30,01,22,17.90
2015,06,30,01,23,17.90
2015,06,30,01,24,17.90
2015,06,30,01,25,17.90
2015,06,30,01,26,17.80
2015,06,30,01,27,17.80
2015,06,30,01,28,17.80
2015,06,30,01,29,17.80
2015,06,30,01,30,17.80
2015,06,30,01,31,17.80
2015,06,30,01,32,17.70
2015,06,30,01,33,17.70
2015,06,30,01,34,17.70
2015,06,30,01,35,17.70
2015,06,30,01,36,17.70
2015,06,30,01,37,17.70
2015,06,30,01,38,17.60
2015,06,30,01,39,17.60
2015,06,30,01,40,17.60
2015,06,30,01,41,17.60
2015,06,30,01,42,17.60
2015,06,30,01,43,17.50
2015,06,30,01,44,17.50
2015,06,30,01,45,17.50
2015,06,30,01,46,17.40
2015,06,30,01,47,17.40
2015,06,30,01,48,17.40
2015,06,30,01,49,17.40
2015,06,30,01,50,17.30
2015,06,30,01,51,17.30
2015,06,30,01,52,17.30
2015,06,30,01,53,17.30
2015,06,30,01,54,17.30
2015,06,30,01,55,17.30
2015,06,30,01,56,17.30
2015,06,30,01,57,17.30
2015,06,30,01,58,17.20
2015,06,30,01,59,17.20
2015,06,30,02,00,17.20
2015,06,30,02,01,17.20
2015,06,30,02,02,17.20
2015,06,30,02,03,17.10
2015,06,30,02,04,17.10
2015,06,30,02,05,17.10
2015,06,30,02,06,17.10
2015,06,30,02,07,17.10
2015,06,30,02,08,17.00
2015,06,30,02,09,17.00
2015,06,30,02,10,17.00
2015,06,30,02,11,17.00
2015,06,30,02,12,17.00
2015,06,30,02,13,17.00
2015,06,30,02,14,16.90
2015,06,30,02,15,16.90
2015,06,30,02,16,16.90
2015,06,30,02,17,16.90
2015,06,30,02,18,16.90
2015,06,30,02,19,16.90
2015,06,30,02,20,16.90
2015,06,30,02,21,16.80
2015,06,30,02,22,16.80
2015,06,30,02,23,16.80
2015,06,30,02,24,16.80
2015,06,30,02,25,16.80
2015,06,30,02,26,16.80
2015,06,30,02,27,16.70
2015,06,30,02,28,16.70
2015,06,30,02,29,16.70
2015,06,30,02,30,16.70
2015,06,30,02,31,16.60
2015,06,30,02,32,16.60
2015,06,30,02,33,16.60
2015,06,30,02,34,16.60
2015,06,30,02,35,16.60
2015,06,30,02,36,16.60
2015,06,30,02,37,16.60
2015,06,30,02,38,16.60
2015,06,30,02,39,16.50
2015,06,30,02,40,16.50
2015,06,30,02,41,16.50
2015,06,30,02,42,16.50
2015,06,30,02,43,16.40
2015,06,30,02,44,16.40
2015,06,30,02,45,16.40
2015,06,30,02,46,16.40
2015,06,30,02,47,16.40
2015,06,30,02,48,16.40
2015,06,30,02,49,16.40
2015,06,30,02,50,16.40
2015,06,30,02,51,16.40
2015,06,30,02,52,16.30
2015,06,30,02,53,16.30
2015,06,30,02,54,16.30
2015,06,30,02,55,16.30
2015,06,30,02,56,16.30
2015,06,30,02,57,16.30
2015,06,30,02,58,16.30
2015,06,30,02,59,16.30
2015,06,30,03,00,16.20
2015,06,30,03,01,16.20
2015,06,30,03,02,16.20
2015,06,30,03,03,16.20
2015,06,30,03,04,16.20
2015,06,30,03,05,16.20
2015,06,30,03,06,16.20
2015,06,30,03,07,16.20
2015,06,30,03,08,16.20
2015,06,30,03,09,16.20
2015,06,30,03,10,16.20
2015,06,30,03,11,16.10
2015,06,30,03,12,16.10
2015,06,30,03,13,16.10
2015,06,30,03,14,16.10
2015,06,30,03,15,16.10
2015,06,30,03,16,16.10
2015,06,30,03,17,16.10
2015,06,30,03,18,16.10
2015,06,30,03,19,16.10
2015,06,30,03,20,16.00
2015,06,30,03,21,16.00
2015,06,30,03,22,16.00
2015,06,30,03,23,16.00
2015,06,30,03,24,15.90
2015,06,30,03,25,15.90
2015,06,30,03,26,15.90
2015,06,30,03,27,15.90
2015,06,30,03,28,15.90
2015,06,30,03,29,15.80
2015,06,30,03,30,15.80
2015,06,30,03,31,15.80
2015,06,30,03,32,15.80
2015,06,30,03,33,15.80
2015,06,30,03,34,15.70
2015,06,30,03,35,15.70
2015,06,30,03,36,15.70
2015,06,30,03,37,15.70
2015,06,30,03,38,15.70
2015,06,30,03,39,15.60
2015,06,30,03,40,15.60
2015,06,30,03,41,15.60
2015,06,30,03,42,15.60
2015,06,30,03,43,15.60
2015,06,30,03,44,15.50
2015,06,30,03,45,15.50
2015,06,30,03,46,15.50
2015,06,30,03,47,15.50
2015,06,30,03,48,15.50
2015,06,30,03,49,15.50
2015,06,30,03,50,15.50
2015,06,30,03,51,15.40
2015,06,30,03,52,15.40
2015,06,30,03,53,15.40
2015,06,30,03,54,15.40
2015,06,30,03,55,15.40
2015,06,30,03,56,15.40
2015,06,30,03,57,15.40
2015,06,30,03,58,15.40
2015,06,30,03,59,15.40
2015,06,30,04,00,15.30
2015,06,30,04,01,15.30
2015,06,30,04,02,15.30
2015,06,30,04,03,15.30
2015,06,30,04,04,15.30
2015,06,30,04,05,15.30
2015,06,30,04,06,15.30
2015,06,30,04,07,15.30
2015,06,30,04,08,15.30
2015,06,30,04,09,15.30
2015,06,30,04,10,15.30
2015,06,30,04,11,15.30
2015,06,30,04,12,15.20
2015,06,30,04,13,15.20
2015,06,30,04,14,15.20
2015,06,30,04,15,15.20
2015,06,30,04,16,15.20
2015,06,30,04,17,15.10
2015,06,30,04,18,15.10
2015,06,30,04,19,15.10
2015,06,30,04,20,15.10
2015,06,30,04,21,15.00
2015,06,30,04,22,15.00
2015,06,30,04,23,15.00
2015,06,30,04,24,15.00
2015,06,30,04,25,15.00
2015,06,30,04,26,15.00
2015,06,30,04,27,15.00
2015,06,30,04,28,15.00
2015,06,30,04,29,15.00
2015,06,30,04,30,15.00
2015,06,30,04,31,15.00
2015,06,30,04,32,15.00
2015,06,30,04,33,15.00
2015,06,30,04,34,15.00
2015,06,30,04,35,15.00
2015,06,30,04,36,15.00
2015,06,30,04,37,15.00
2015,06,30,04,38,15.00
2015,06,30,04,39,15.00
2015,06,30,04,40,15.00
2015,06,30,04,41,15.00
2015,06,30,04,42,15.00
2015,06,30,04,43,15.00
2015,06,30,04,44,15.00
2015,06,30,04,45,15.00
2015,06,30,04,46,15.00
2015,06,30,04,47,14.90
2015,06,30,04,48,14.90
2015,06,30,04,49,14.90
2015,06,30,04,50,14.80
2015,06,30,04,51,14.80
2015,06,30,04,52,14.80
2015,06,30,04,53,14.80
2015,06,30,04,54,14.80
2015,06,30,04,55,14.80
2015,06,30,04,56,14.80
2015,06,30,04,57,14.80
2015,06,30,04,58,14.80
2015,06,30,04,59,14.80
2015,06,30,05,00,14.70
2015,06,30,05,01,14.70
2015,06,30,05,02,14.70
2015,06,30,05,03,14.70
2015,06,30,05,04,14.70
2015,06,30,05,05,14.70
2015,06,30,05,06,14.70
2015,06,30,05,07,14.60
2015,06,30,05,08,14.60
2015,06,30,05,09,14.60
2015,06,30,05,10,14.60
2015,06,30,05,11,14.60
2015,06,30,05,12,14.60
2015,06,30,05,13,14.60
2015,06,30,05,14,14.60
2015,06,30,05,15,14.60
2015,06,30,05,16,14.60
2015,06,30,05,17,14.60
2015,06,30,05,18,14.60
2015,06,30,05,19,14.60
2015,06,30,05,20,14.50
2015,06,30,05,21,14.50
2015,06,30,05,22,14.50
2015,06,30,05,23,14.50
2015,06,30,05,24,14.50
2015,06,30,05,25,14.50
2015,06,30,05,26,14.50
2015,06,30,05,27,14.50
2015,06,30,05,28,14.50
2015,06,30,05,29,14.40
2015,06,30,05,30,14.40
2015,06,30,05,31,14.40
2015,06,30,05,32,14.40
2015,06,30,05,33,14.40
2015,06,30,05,34,14.40
2015,06,30,05,35,14.40
2015,06,30,05,36,14.40
2015,06,30,05,37,14.40
2015,06,30,05,38,14.40
2015,06,30,05,39,14.40
2015,06,30,05,40,14.40
2015,06,30,05,41,14.40
2015,06,30,05,42,14.40
2015,06,30,05,43,14.30
2015,06,30,05,44,14.30
2015,06,30,05,45,14.30
2015,06,30,05,46,14.30
2015,06,30,05,47,14.30
2015,06,30,05,48,14.30
2015,06,30,05,49,14.30
2015,06,30,05,50,14.30
2015,06,30,05,51,14.30
2015,06,30,05,52,14.30
2015,06,30,05,53,14.30
2015,06,30,05,54,14.30
2015,06,30,05,55,14.30
2015,06,30,05,56,14.30
2015,06,30,05,57,14.30
2015,06,30,05,58,14.30
2015,06,30,05,59,14.30
2015,06,30,06,00,14.30
2015,06,30,06,01,14.30
2015,06,30,06,02,14.30
2015,06,30,06,03,14.30
2015,06,30,06,04,14.30
2015,06,30,06,05,14.30
2015,06,30,06,06,14.30
2015,06,30,06,07,14.30
2015,06,30,06,08,14.30
2015,06,30,06,09,14.30
2015,06,30,06,10,14.30
2015,06,30,06,11,14.30
2015,06,30,06,12,14.30
2015,06,30,06,13,14.30
2015,06,30,06,14,14.30
2015,06,30,06,15,14.30
2015,06,30,06,16,14.30
2015,06,30,06,17,14.40
2015,06,30,06,18,14.40
2015,06,30,06,19,14.40
2015,06,30,06,20,14.40
2015,06,30,06,21,14.40
2015,06,30,06,22,14.40
2015,06,30,06,23,14.40
2015,06,30,06,24,14.40
2015,06,30,06,25,14.40
2015,06,30,06,26,14.40
2015,06,30,06,27,14.40
2015,06,30,06,28,14.40
2015,06,30,06,29,14.40
2015,06,30,06,30,14.40
2015,06,30,06,31,14.40
2015,06,30,06,32,14.40
2015,06,30,06,33,14.40
2015,06,30,06,34,14.40
2015,06,30,06,35,14.40
2015,06,30,06,36,14.40
2015,06,30,06,37,14.50
2015,06,30,06,38,14.50
2015,06,30,06,39,14.50
2015,06,30,06,40,14.50
2015,06,30,06,41,14.50
2015,06,30,06,42,14.50
2015,06,30,06,43,14.50
2015,06,30,06,44,14.60
2015,06,30,06,45,14.60
2015,06,30,06,46,14.60
2015,06,30,06,47,14.60
2015,06,30,06,48,14.60
2015,06,30,06,49,14.60
2015,06,30,06,50,14.60
2015,06,30,06,51,14.60
2015,06,30,06,52,14.60
2015,06,30,06,53,14.70
2015,06,30,06,54,14.70
2015,06,30,06,55,14.70
2015,06,30,06,56,14.70
2015,06,30,06,57,14.80
2015,06,30,06,58,14.80
2015,06,30,06,59,14.80
2015,06,30,07,00,14.80
2015,06,30,07,01,14.90
2015,06,30,07,02,14.90
2015,06,30,07,03,15.00
2015,06,30,07,04,15.00
2015,06,30,07,05,15.00
2015,06,30,07,06,15.00
2015,06,30,07,07,15.00
2015,06,30,07,08,15.00
2015,06,30,07,09,15.00
2015,06,30,07,10,15.00
2015,06,30,07,11,15.00
2015,06,30,07,12,15.00
2015,06,30,07,13,15.10
2015,06,30,07,14,15.10
2015,06,30,07,15,15.20
2015,06,30,07,16,15.20
2015,06,30,07,17,15.30
2015,06,30,07,18,15.30
2015,06,30,07,19,15.30
2015,06,30,07,20,15.40
2015,06,30,07,21,15.40
2015,06,30,07,22,15.50
2015,06,30,07,23,15.60
2015,06,30,07,24,15.70
2015,06,30,07,25,15.90
2015,06,30,07,26,16.10
2015,06,30,07,27,16.20
2015,06,30,07,28,16.50
2015,06,30,07,29,16.70
2015,06,30,07,30,16.90
2015,06,30,07,31,17.10
2015,06,30,07,32,17.30
2015,06,30,07,33,17.50
2015,06,30,07,34,17.80
2015,06,30,07,35,18.00
2015,06,30,07,36,18.20
2015,06,30,07,37,18.50
2015,06,30,07,38,18.60
2015,06,30,07,39,18.80
2015,06,30,07,40,19.00
2015,06,30,07,41,19.10
2015,06,30,07,42,19.30
2015,06,30,07,43,19.40
2015,06,30,07,44,19.60
2015,06,30,07,45,19.80
2015,06,30,07,46,19.90
2015,06,30,07,47,20.00
2015,06,30,07,48,20.20
2015,06,30,07,49,20.30
2015,06,30,07,50,20.40
2015,06,30,07,51,20.50
2015,06,30,07,52,20.70
2015,06,30,07,53,20.80
2015,06,30,07,54,20.90
2015,06,30,07,55,21.00
2015,06,30,07,56,21.10
2015,06,30,07,57,21.20
2015,06,30,07,58,21.30
2015,06,30,07,59,21.30
2015,06,30,08,00,21.40
2015,06,30,08,01,21.50
2015,06,30,08,02,21.60
2015,06,30,08,03,21.60
2015,06,30,08,04,21.70
2015,06,30,08,05,21.70
2015,06,30,08,06,21.80
2015,06,30,08,07,21.90
2015,06,30,08,08,21.90
2015,06,30,08,09,22.00
2015,06,30,08,10,22.10
2015,06,30,08,11,22.20
2015,06,30,08,12,22.30
2015,06,30,08,13,22.40
2015,06,30,08,14,22.50
2015,06,30,08,15,22.60
2015,06,30,08,16,22.70
2015,06,30,08,17,22.80
2015,06,30,08,18,22.90
2015,06,30,08,19,23.00
2015,06,30,08,20,23.00
2015,06,30,08,21,23.20
2015,06,30,08,22,23.20
2015,06,30,08,23,23.30
2015,06,30,08,24,23.40
2015,06,30,08,25,23.50
2015,06,30,08,26,23.60
2015,06,30,08,27,23.70
2015,06,30,08,28,23.70
2015,06,30,08,29,23.70
2015,06,30,08,30,23.80
2015,06,30,08,31,23.70
2015,06,30,08,32,23.70
2015,06,30,08,33,23.60
2015,06,30,08,34,23.50
2015,06,30,08,35,23.50
2015,06,30,08,36,23.50
2015,06,30,08,37,23.50
2015,06,30,08,38,23.40
2015,06,30,08,39,23.30
2015,06,30,08,40,23.20
2015,06,30,08,41,23.20
2015,06,30,08,42,23.20
2015,06,30,08,43,23.20
2015,06,30,08,44,23.20
2015,06,30,08,45,23.20
2015,06,30,08,46,23.20
2015,06,30,08,47,23.30
2015,06,30,08,48,23.30
2015,06,30,08,49,23.40
2015,06,30,08,50,23.50
2015,06,30,08,51,23.60
2015,06,30,08,52,23.70
2015,06,30,08,53,23.80
2015,06,30,08,54,23.80
2015,06,30,08,55,23.80
2015,06,30,08,56,23.90
2015,06,30,08,57,23.90
2015,06,30,08,58,23.80
2015,06,30,08,59,23.70
2015,06,30,09,00,23.70
2015,06,30,09,01,23.70
2015,06,30,09,02,23.80
2015,06,30,09,03,23.90
2015,06,30,09,04,23.90
2015,06,30,09,05,24.00
2015,06,30,09,06,24.00
2015,06,30,09,07,24.10
2015,06,30,09,08,24.20
2015,06,30,09,09,24.30
2015,06,30,09,10,24.40
2015,06,30,09,11,24.50
2015,06,30,09,12,24.50
2015,06,30,09,13,24.50
2015,06,30,09,14,24.40
2015,06,30,09,15,24.30
2015,06,30,09,16,24.30
2015,06,30,09,17,24.30
2015,06,30,09,18,24.30
2015,06,30,09,19,24.30
2015,06,30,09,20,24.30
2015,06,30,09,21,24.30
2015,06,30,09,22,24.40
2015,06,30,09,23,24.50
2015,06,30,09,24,24.50
2015,06,30,09,25,24.70
2015,06,30,09,26,24.80
2015,06,30,09,27,24.80
2015,06,30,09,28,24.80
2015,06,30,09,29,24.80
2015,06,30,09,30,24.70
2015,06,30,09,31,24.70
2015,06,30,09,32,24.70
2015,06,30,09,33,24.80
2015,06,30,09,34,24.90
2015,06,30,09,35,24.90
2015,06,30,09,36,24.90
2015,06,30,09,37,24.80
2015,06,30,09,38,24.90
2015,06,30,09,39,24.90
2015,06,30,09,40,24.80
2015,06,30,09,41,24.80
2015,06,30,09,42,24.90
2015,06,30,09,43,24.90
2015,06,30,09,44,24.90
2015,06,30,09,45,24.90
2015,06,30,09,46,25.00
2015,06,30,09,47,25.00
2015,06,30,09,48,25.10
2015,06,30,09,49,25.10
2015,06,30,09,50,25.10
2015,06,30,09,51,25.10
2015,06,30,09,52,25.10
2015,06,30,09,53,25.00
2015,06,30,09,54,25.00
2015,06,30,09,55,24.90
2015,06,30,09,56,24.90
2015,06,30,09,57,24.90
2015,06,30,09,58,25.00
2015,06,30,09,59,25.00
2015,06,30,10,00,25.00
2015,06,30,10,01,25.10
2015,06,30,10,02,25.20
2015,06,30,10,03,25.30
2015,06,30,10,04,25.30
2015,06,30,10,05,25.30
2015,06,30,10,06,25.30
2015,06,30,10,07,25.30
2015,06,30,10,08,25.40
2015,06,30,10,09,25.40
2015,06,30,10,10,25.40
2015,06,30,10,11,25.40
2015,06,30,10,12,25.50
2015,06,30,10,13,25.50
2015,06,30,10,14,25.60
2015,06,30,10,15,25.60
2015,06,30,10,16,25.50
2015,06,30,10,17,25.40
2015,06,30,10,18,25.40
2015,06,30,10,19,25.40
2015,06,30,10,20,25.40
2015,06,30,10,21,25.20
2015,06,30,10,22,25.20
2015,06,30,10,23,25.20
2015,06,30,10,24,25.10
2015,06,30,10,25,25.10
2015,06,30,10,26,25.10
2015,06,30,10,27,25.20
2015,06,30,10,28,25.20
2015,06,30,10,29,25.30
2015,06,30,10,30,25.40
2015,06,30,10,31,25.50
2015,06,30,10,32,25.60
2015,06,30,10,33,25.60
2015,06,30,10,34,25.50
2015,06,30,10,35,25.40
2015,06,30,10,36,25.50
2015,06,30,10,37,25.50
2015,06,30,10,38,25.60
2015,06,30,10,39,25.70
2015,06,30,10,40,25.70
2015,06,30,10,41,25.70
2015,06,30,10,42,25.70
2015,06,30,10,43,25.80
2015,06,30,10,44,25.80
2015,06,30,10,45,25.70
2015,06,30,10,46,25.70
2015,06,30,10,47,25.60
2015,06,30,10,48,25.50
2015,06,30,10,49,25.50
2015,06,30,10,50,25.40
2015,06,30,10,51,25.40
2015,06,30,10,52,25.40
2015,06,30,10,53,25.40
2015,06,30,10,54,25.40
2015,06,30,10,55,25.40
2015,06,30,10,56,25.40
2015,06,30,10,57,25.40
2015,06,30,10,58,25.40
2015,06,30,10,59,25.40
2015,06,30,11,00,25.40
2015,06,30,11,01,25.40
2015,06,30,11,02,25.40
2015,06,30,11,03,25.30
2015,06,30,11,04,25.40
2015,06,30,11,05,25.40
2015,06,30,11,06,25.30
2015,06,30,11,07,25.30
2015,06,30,11,08,25.30
2015,06,30,11,09,25.40
2015,06,30,11,10,25.30
2015,06,30,11,11,25.30
2015,06,30,11,12,25.30
2015,06,30,11,13,25.30
2015,06,30,11,14,25.40
2015,06,30,11,15,25.40
2015,06,30,11,16,25.40
2015,06,30,11,17,25.40
2015,06,30,11,18,25.40
2015,06,30,11,19,25.40
2015,06,30,11,20,25.30
2015,06,30,11,21,25.30
2015,06,30,11,22,25.30
2015,06,30,11,23,25.40
2015,06,30,11,24,25.50
2015,06,30,11,25,25.60
2015,06,30,11,26,25.80
2015,06,30,11,27,25.80
2015,06,30,11,28,25.90
2015,06,30,11,29,25.90
2015,06,30,11,30,25.90
2015,06,30,11,31,26.10
2015,06,30,11,32,26.20
2015,06,30,11,33,26.20
2015,06,30,11,34,26.10
2015,06,30,11,35,26.00
2015,06,30,11,36,26.10
2015,06,30,11,37,26.20
2015,06,30,11,38,26.30
2015,06,30,11,39,26.40
2015,06,30,11,40,26.40
2015,06,30,11,41,26.50
2015,06,30,11,42,26.60
2015,06,30,11,43,26.70
2015,06,30,11,44,26.70
2015,06,30,11,45,26.70
2015,06,30,11,46,26.60
2015,06,30,11,47,26.60
2015,06,30,11,48,26.70
2015,06,30,11,49,26.70
2015,06,30,11,50,26.80
2015,06,30,11,51,26.80
2015,06,30,11,52,26.70
2015,06,30,11,53,26.80
2015,06,30,11,54,26.80
2015,06,30,11,55,26.70
2015,06,30,11,56,26.60
2015,06,30,11,57,26.60
2015,06,30,11,58,26.60
2015,06,30,11,59,26.50
2015,06,30,12,00,26.50
2015,06,30,12,01,26.40
2015,06,30,12,02,26.40
2015,06,30,12,03,26.40
2015,06,30,12,04,26.30
2015,06,30,12,05,26.10
2015,06,30,12,06,26.00
2015,06,30,12,07,25.90
2015,06,30,12,08,25.80
2015,06,30,12,09,25.60
2015,06,30,12,10,25.60
2015,06,30,12,11,25.60
2015,06,30,12,12,25.60
2015,06,30,12,13,25.70
2015,06,30,12,14,25.70
2015,06,30,12,15,25.70
2015,06,30,12,16,25.80
2015,06,30,12,17,25.90
2015,06,30,12,18,26.00
2015,06,30,12,19,26.00
2015,06,30,12,20,26.10
2015,06,30,12,21,26.20
2015,06,30,12,22,26.20
2015,06,30,12,23,26.10
2015,06,30,12,24,25.90
2015,06,30,12,25,25.90
2015,06,30,12,26,25.90
2015,06,30,12,27,25.90
2015,06,30,12,28,26.00
2015,06,30,12,29,26.10
2015,06,30,12,30,26.30
2015,06,30,12,31,26.40
2015,06,30,12,32,26.60
2015,06,30,12,33,26.70
2015,06,30,12,34,26.90
2015,06,30,12,35,27.00
2015,06,30,12,36,27.00
2015,06,30,12,37,26.90
2015,06,30,12,38,26.90
2015,06,30,12,39,26.90
2015,06,30,12,40,26.80
2015,06,30,12,41,26.70
2015,06,30,12,42,26.80
2015,06,30,12,43,26.80
2015,06,30,12,44,26.90
2015,06,30,12,45,26.90
2015,06,30,12,46,26.90
2015,06,30,12,47,26.90
2015,06,30,12,48,26.90
2015,06,30,12,49,27.00
2015,06,30,12,50,27.00
2015,06,30,12,51,27.00
2015,06,30,12,52,27.00
2015,06,30,12,53,26.90
2015,06,30,12,54,26.70
2015,06,30,12,55,26.60
2015,06,30,12,56,26.60
2015,06,30,12,57,26.70
2015,06,30,12,58,26.70
2015,06,30,12,59,26.80
2015,06,30,13,00,27.00
2015,06,30,13,01,27.00
2015,06,30,13,02,27.20
2015,06,30,13,03,27.20
2015,06,30,13,04,27.10
2015,06,30,13,05,27.00
2015,06,30,13,06,27.00
2015,06,30,13,07,27.00
2015,06,30,13,08,27.00
2015,06,30,13,09,27.10
2015,06,30,13,10,27.10
2015,06,30,13,11,27.20
2015,06,30,13,12,27.20
2015,06,30,13,13,27.20
2015,06,30,13,14,27.20
2015,06,30,13,15,27.10
2015,06,30,13,16,27.00
2015,06,30,13,17,27.00
2015,06,30,13,18,27.00
2015,06,30,13,19,26.90
2015,06,30,13,20,26.90
2015,06,30,13,21,26.90
2015,06,30,13,22,26.90
2015,06,30,13,23,26.80
2015,06,30,13,24,26.70
2015,06,30,13,25,26.70
2015,06,30,13,26,26.80
2015,06,30,13,27,26.80
2015,06,30,13,28,26.80
2015,06,30,13,29,26.80
2015,06,30,13,30,26.80
2015,06,30,13,31,26.90
2015,06,30,13,32,27.00
2015,06,30,13,33,27.00
2015,06,30,13,34,27.00
2015,06,30,13,35,27.10
2015,06,30,13,36,27.20
2015,06,30,13,37,27.00
2015,06,30,13,38,26.90
2015,06,30,13,39,26.90
2015,06,30,13,40,26.90
2015,06,30,13,41,27.00
2015,06,30,13,42,27.00
2015,06,30,13,43,26.80
2015,06,30,13,44,26.70
2015,06,30,13,45,26.70
2015,06,30,13,46,26.60
2015,06,30,13,47,26.60
2015,06,30,13,48,26.50
2015,06,30,13,49,26.40
2015,06,30,13,50,26.40
2015,06,30,13,51,26.50
2015,06,30,13,52,26.60
2015,06,30,13,53,26.60
2015,06,30,13,54,26.70
2015,06,30,13,55,26.70
2015,06,30,13,56,26.70
2015,06,30,13,57,26.70
2015,06,30,13,58,26.80
2015,06,30,13,59,26.80
2015,06,30,14,00,26.80
2015,06,30,14,01,26.80
2015,06,30,14,02,26.80
2015,06,30,14,03,26.80
2015,06,30,14,04,26.80
2015,06,30,14,05,26.80
2015,06,30,14,06,26.90
2015,06,30,14,07,27.00
2015,06,30,14,08,27.10
2015,06,30,14,09,27.10
2015,06,30,14,10,27.10
2015,06,30,14,11,27.10
2015,06,30,14,12,27.10
2015,06,30,14,13,27.00
2015,06,30,14,14,26.90
2015,06,30,14,15,27.00
2015,06,30,14,16,27.10
2015,06,30,14,17,27.10
2015,06,30,14,18,27.10
2015,06,30,14,19,27.10
2015,06,30,14,20,27.20
2015,06,30,14,21,27.30
2015,06,30,14,22,27.30
2015,06,30,14,23,27.40
2015,06,30,14,24,27.50
2015,06,30,14,25,27.70
2015,06,30,14,26,27.80
2015,06,30,14,27,27.90
2015,06,30,14,28,27.90
2015,06,30,14,29,27.90
2015,06,30,14,30,27.90
2015,06,30,14,31,27.80
2015,06,30,14,32,27.70
2015,06,30,14,33,27.80
2015,06,30,14,34,27.90
2015,06,30,14,35,27.90
2015,06,30,14,36,28.00
2015,06,30,14,37,28.00
2015,06,30,14,38,28.00
2015,06,30,14,39,27.90
2015,06,30,14,40,27.80
2015,06,30,14,41,27.70
2015,06,30,14,42,27.60
2015,06,30,14,43,27.40
2015,06,30,14,44,27.10
2015,06,30,14,45,26.90
2015,06,30,14,46,26.90
2015,06,30,14,47,26.90
2015,06,30,14,48,26.90
2015,06,30,14,49,26.90
2015,06,30,14,50,26.90
2015,06,30,14,51,26.80
2015,06,30,14,52,26.80
2015,06,30,14,53,26.90
2015,06,30,14,54,26.80
2015,06,30,14,55,26.80
2015,06,30,14,56,26.90
2015,06,30,14,57,27.00
2015,06,30,14,58,27.10
2015,06,30,14,59,27.10
2015,06,30,15,00,26.90
2015,06,30,15,01,26.80
2015,06,30,15,02,26.60
2015,06,30,15,03,26.60
2015,06,30,15,04,26.60
2015,06,30,15,05,26.60
2015,06,30,15,06,26.70
2015,06,30,15,07,26.90
2015,06,30,15,08,27.00
2015,06,30,15,09,27.10
2015,06,30,15,10,27.20
2015,06,30,15,11,27.30
2015,06,30,15,12,27.40
2015,06,30,15,13,27.50
2015,06,30,15,14,27.70
2015,06,30,15,15,27.70
2015,06,30,15,16,27.60
2015,06,30,15,17,27.60
2015,06,30,15,18,27.60
2015,06,30,15,19,27.60
2015,06,30,15,20,27.70
2015,06,30,15,21,27.80
2015,06,30,15,22,27.80
2015,06,30,15,23,27.90
2015,06,30,15,24,27.90
2015,06,30,15,25,27.90
2015,06,30,15,26,27.90
2015,06,30,15,27,27.90
2015,06,30,15,28,27.90
2015,06,30,15,29,27.80
2015,06,30,15,30,27.70
2015,06,30,15,31,27.70
2015,06,30,15,32,27.60
2015,06,30,15,33,27.60
2015,06,30,15,34,27.50
2015,06,30,15,35,27.50
2015,06,30,15,36,27.50
2015,06,30,15,37,27.50
2015,06,30,15,38,27.50
2015,06,30,15,39,27.40
2015,06,30,15,40,27.20
2015,06,30,15,41,27.10
2015,06,30,15,42,27.10
2015,06,30,15,43,27.10
2015,06,30,15,44,27.20
2015,06,30,15,45,27.20
2015,06,30,15,46,27.30
2015,06,30,15,47,27.20
2015,06,30,15,48,27.20
2015,06,30,15,49,27.20
2015,06,30,15,50,27.30
2015,06,30,15,51,27.30
2015,06,30,15,52,27.20
2015,06,30,15,53,27.20
2015,06,30,15,54,27.20
2015,06,30,15,55,27.10
2015,06,30,15,56,27.00
2015,06,30,15,57,26.90
2015,06,30,15,58,26.90
2015,06,30,15,59,26.90
2015,06,30,16,00,26.90
2015,06,30,16,01,26.90
2015,06,30,16,02,27.00
2015,06,30,16,03,27.00
2015,06,30,16,04,27.00
2015,06,30,16,05,27.00
2015,06,30,16,06,27.00
2015,06,30,16,07,26.90
2015,06,30,16,08,26.80
2015,06,30,16,09,26.70
2015,06,30,16,10,26.70
2015,06,30,16,11,26.60
2015,06,30,16,12,26.60
2015,06,30,16,13,26.60
2015,06,30,16,14,26.60
2015,06,30,16,15,26.60
2015,06,30,16,16,26.60
2015,06,30,16,17,26.60
2015,06,30,16,18,26.60
2015,06,30,16,19,26.70
2015,06,30,16,20,26.70
2015,06,30,16,21,26.70
2015,06,30,16,22,26.70
2015,06,30,16,23,26.60
2015,06,30,16,24,26.60
2015,06,30,16,25,26.50
2015,06,30,16,26,26.50
2015,06,30,16,27,26.40
2015,06,30,16,28,26.40
2015,06,30,16,29,26.40
2015,06,30,16,30,26.40
2015,06,30,16,31,26.40
2015,06,30,16,32,26.40
2015,06,30,16,33,26.40
2015,06,30,16,34,26.40
2015,06,30,16,35,26.40
2015,06,30,16,36,26.40
2015,06,30,16,37,26.40
2015,06,30,16,38,26.40
2015,06,30,16,39,26.50
2015,06,30,16,40,26.50
2015,06,30,16,41,26.50
2015,06,30,16,42,26.50
2015,06,30,16,43,26.40
2015,06,30,16,44,26.40
2015,06,30,16,45,26.40
2015,06,30,16,46,26.40
2015,06,30,16,47,26.40
2015,06,30,16,48,26.40
2015,06,30,16,49,26.40
2015,06,30,16,50,26.40
2015,06,30,16,51,26.40
2015,06,30,16,52,26.40
2015,06,30,16,53,26.40
2015,06,30,16,54,26.50
2015,06,30,16,55,26.40
2015,06,30,16,56,26.50
2015,06,30,16,57,26.50
2015,06,30,16,58,26.50
2015,06,30,16,59,26.50
2015,06,30,17,00,26.50
2015,06,30,17,01,26.50
2015,06,30,17,02,26.50
2015,06,30,17,03,26.50
2015,06,30,17,04,26.50
2015,06,30,17,05,26.40
2015,06,30,17,06,26.40
2015,06,30,17,07,26.40
2015,06,30,17,08,26.40
2015,06,30,17,09,26.40
2015,06,30,17,10,26.50
2015,06,30,17,11,26.50
2015,06,30,17,12,26.50
2015,06,30,17,13,26.60
2015,06,30,17,14,26.60
2015,06,30,17,15,26.60
2015,06,30,17,16,26.60
2015,06,30,17,17,26.60
2015,06,30,17,18,26.60
2015,06,30,17,19,26.60